TimeCST,TemperatureF,Dew PointF,Humidity,Sea Level PressureIn,VisibilityMPH,Wind Direction,Wind SpeedMPH,Gust SpeedMPH,PrecipitationIn,Events,Conditions,WindDirDegrees,DateUTC
12:15 AM,28.0,25.7,91,29.91,10.0,SSW,4.6,-,N/A,,Overcast,200,2013-12-28 06:15:00
12:35 AM,27.1,25.3,93,29.91,10.0,WSW,6.9,-,N/A,,Overcast,240,2013-12-28 06:35:00
12:55 AM,28.0,25.7,91,29.92,10.0,WSW,6.9,-,N/A,,Overcast,240,2013-12-28 06:55:00
1:15 AM,28.4,25.7,90,29.92,10.0,WSW,4.6,-,N/A,,Overcast,250,2013-12-28 07:15:00
1:35 AM,29.1,26.1,88,29.93,10.0,WSW,6.9,-,N/A,,Overcast,250,2013-12-28 07:35:00
1:55 AM,29.7,26.2,87,29.93,10.0,WSW,5.8,-,N/A,,Overcast,250,2013-12-28 07:55:00
2:15 AM,29.8,26.4,87,29.93,10.0,SW,5.8,-,N/A,,Overcast,230,2013-12-28 08:15:00
2:35 AM,29.7,26.4,88,29.91,10.0,SSW,5.8,-,N/A,,Overcast,210,2013-12-28 08:35:00
2:55 AM,29.3,26.6,90,29.90,10.0,SW,3.5,-,N/A,,Overcast,220,2013-12-28 08:55:00
3:15 AM,29.3,26.4,89,29.90,10.0,SW,3.5,-,N/A,,Overcast,230,2013-12-28 09:15:00
3:35 AM,29.3,26.6,90,29.90,10.0,WSW,6.9,-,N/A,,Overcast,240,2013-12-28 09:35:00
3:55 AM,29.3,26.6,90,29.89,10.0,SW,5.8,-,N/A,,Overcast,220,2013-12-28 09:55:00
4:15 AM,29.3,26.6,90,29.88,10.0,SW,4.6,-,N/A,,Overcast,220,2013-12-28 10:15:00
4:35 AM,29.1,26.6,90,29.88,10.0,SW,4.6,-,N/A,,Overcast,230,2013-12-28 10:35:00
4:55 AM,29.1,26.6,90,29.87,10.0,SW,5.8,-,N/A,,Overcast,220,2013-12-28 10:55:00
5:15 AM,29.1,27.0,92,29.85,10.0,SSW,5.8,-,N/A,,Overcast,200,2013-12-28 11:15:00
5:35 AM,29.1,27.1,92,29.85,10.0,SW,4.6,-,N/A,,Overcast,220,2013-12-28 11:35:00
5:55 AM,28.9,27.1,93,29.85,10.0,SSW,4.6,-,N/A,,Overcast,210,2013-12-28 11:55:00
6:15 AM,28.8,27.3,94,29.85,10.0,SSW,4.6,-,N/A,,Overcast,210,2013-12-28 12:15:00
6:35 AM,28.8,27.5,95,29.85,10.0,SSW,3.5,-,N/A,,Overcast,210,2013-12-28 12:35:00
6:55 AM,28.8,27.5,95,29.85,7.0,Calm,Calm,-,N/A,,Overcast,0,2013-12-28 12:55:00
7:15 AM,28.4,27.5,96,29.84,5.0,SSW,3.5,-,N/A,,Overcast,210,2013-12-28 13:15:00
7:35 AM,28.4,27.5,96,29.84,7.0,SSW,5.8,-,N/A,,Overcast,200,2013-12-28 13:35:00
7:55 AM,28.8,27.5,95,29.84,7.0,SW,4.6,-,N/A,,Overcast,220,2013-12-28 13:55:00
8:15 AM,28.4,27.5,96,29.84,5.0,SW,5.8,-,N/A,,Overcast,220,2013-12-28 14:15:00
8:35 AM,28.4,27.5,96,29.84,5.0,WSW,4.6,-,N/A,,Overcast,240,2013-12-28 14:35:00
8:55 AM,28.4,27.5,96,29.84,5.0,SW,3.5,-,N/A,,Overcast,230,2013-12-28 14:55:00
9:15 AM,28.4,27.1,95,29.83,10.0,SW,3.5,-,N/A,,Overcast,220,2013-12-28 15:15:00
9:35 AM,28.8,27.0,93,29.83,10.0,SSW,3.5,-,N/A,,Overcast,200,2013-12-28 15:35:00
9:55 AM,28.4,27.5,96,29.83,5.0,SSW,3.5,-,N/A,,Overcast,210,2013-12-28 15:55:00
10:15 AM,28.4,27.5,96,29.83,4.0,Calm,Calm,-,N/A,,Overcast,0,2013-12-28 16:15:00
10:35 AM,28.4,27.9,98,29.82,3.0,Calm,Calm,-,N/A,,Overcast,0,2013-12-28 16:35:00
10:55 AM,28.4,27.0,94,29.82,4.0,SE,4.6,-,N/A,,Overcast,130,2013-12-28 16:55:00
11:15 AM,27.9,27.1,97,29.82,2.5,SE,4.6,-,N/A,,Overcast,140,2013-12-28 17:15:00
11:35 AM,28.2,27.3,96,29.81,1.8,Calm,Calm,-,N/A,,Overcast,0,2013-12-28 17:35:00
11:55 AM,28.2,27.3,96,29.79,1.5,Calm,Calm,-,N/A,,Overcast,0,2013-12-28 17:55:00
12:15 PM,28.2,27.5,97,29.79,1.5,SSE,3.5,-,N/A,,Overcast,160,2013-12-28 18:15:00
12:35 PM,28.9,27.5,94,29.78,4.0,SE,3.5,-,N/A,,Overcast,130,2013-12-28 18:35:00
12:55 PM,29.5,27.5,92,29.77,7.0,ESE,3.5,-,N/A,,Overcast,110,2013-12-28 18:55:00
1:15 PM,29.5,27.5,92,29.75,7.0,ENE,5.8,-,N/A,,Overcast,70,2013-12-28 19:15:00
1:35 PM,29.8,27.5,91,29.75,7.0,ENE,6.9,-,N/A,,Overcast,60,2013-12-28 19:35:00
1:55 PM,29.7,27.9,93,29.74,7.0,East,9.2,-,N/A,,Overcast,90,2013-12-28 19:55:00
2:15 PM,29.7,28.0,94,29.75,4.0,East,5.8,-,N/A,,Overcast,80,2013-12-28 20:15:00
2:35 PM,29.5,28.4,96,29.74,2.0,East,9.2,-,N/A,,Overcast,80,2013-12-28 20:35:00
2:55 PM,29.3,28.8,98,29.76,2.0,ENE,6.9,-,N/A,,Overcast,60,2013-12-28 20:55:00
3:15 PM,29.7,28.9,97,29.77,2.5,NE,9.2,-,N/A,,Overcast,50,2013-12-28 21:15:00
3:35 PM,30.2,29.7,98,29.76,2.0,NE,10.4,17.3,N/A,,Overcast,50,2013-12-28 21:35:00
3:55 PM,30.0,29.1,96,29.77,1.8,ENE,20.7,26.5,N/A,Snow,Light Snow,60,2013-12-28 21:55:00
4:15 PM,28.6,27.5,96,29.77,1.8,NE,17.3,29.9,N/A,,Overcast,50,2013-12-28 22:15:00
4:35 PM,27.9,26.6,95,29.79,3.0,ENE,19.6,28.8,N/A,,Overcast,60,2013-12-28 22:35:00
4:55 PM,27.5,26.2,95,29.81,4.0,ENE,16.1,24.2,N/A,,Overcast,60,2013-12-28 22:55:00
5:15 PM,27.5,26.2,95,29.82,5.0,ENE,18.4,26.5,N/A,,Overcast,60,2013-12-28 23:15:00
5:35 PM,27.1,25.9,95,29.84,4.0,ENE,11.5,26.5,N/A,,Overcast,60,2013-12-28 23:35:00
5:55 PM,26.6,25.3,95,29.86,4.0,NE,17.3,29.9,N/A,,Overcast,50,2013-12-28 23:55:00
6:15 PM,26.2,24.4,93,29.87,4.0,NE,17.3,33.4,N/A,,Overcast,50,2013-12-29 00:15:00
6:35 PM,25.7,23.9,93,29.89,4.0,ENE,16.1,26.5,N/A,,Overcast,60,2013-12-29 00:35:00
6:55 PM,24.8,23.2,94,29.91,4.0,NE,16.1,21.9,N/A,,Overcast,50,2013-12-29 00:55:00
7:15 PM,24.3,22.5,93,29.93,3.0,NE,17.3,26.5,N/A,,Overcast,50,2013-12-29 01:15:00
7:35 PM,23.7,21.7,92,29.94,5.0,ENE,17.3,24.2,N/A,,Overcast,70,2013-12-29 01:35:00
7:55 PM,23.9,22.1,93,29.95,3.0,ENE,15.0,20.7,N/A,,Overcast,70,2013-12-29 01:55:00
8:15 PM,23.7,22.1,94,29.95,3.0,ENE,13.8,20.7,N/A,,Overcast,70,2013-12-29 02:15:00
8:35 PM,21.2,19.0,91,29.96,3.0,NNE,9.2,18.4,N/A,Snow,Light Snow,20,2013-12-29 02:35:00
8:55 PM,19.2,15.8,87,29.98,7.0,NNE,11.5,17.3,N/A,,Overcast,30,2013-12-29 02:55:00
9:15 PM,17.4,14.0,86,29.99,7.0,North,10.4,16.1,N/A,,Overcast,10,2013-12-29 03:15:00
9:35 PM,16.3,13.1,87,30.00,10.0,NNE,8.1,-,N/A,,Overcast,20,2013-12-29 03:35:00
9:55 PM,14.9,10.6,83,30.01,10.0,North,10.4,-,N/A,,Overcast,10,2013-12-29 03:55:00
10:15 PM,14.4,9.3,80,30.02,10.0,North,9.2,-,N/A,,Overcast,10,2013-12-29 04:15:00
10:35 PM,13.6,8.6,80,30.04,10.0,North,8.1,17.3,N/A,,Overcast,360,2013-12-29 04:35:00
10:55 PM,12.2,6.8,79,30.05,10.0,North,9.2,-,N/A,,Overcast,360,2013-12-29 04:55:00
11:15 PM,12.2,6.3,77,30.06,10.0,North,8.1,-,N/A,,Overcast,360,2013-12-29 05:15:00
11:35 PM,11.8,5.7,76,30.07,10.0,North,8.1,-,N/A,,Overcast,350,2013-12-29 05:35:00
11:55 PM,11.1,4.8,76,30.08,10.0,North,9.2,16.1,N/A,,Overcast,360,2013-12-29 05:55:00